Starlink 3071

operational
NORAD ID: 49147 Int'l Des: 2021-082 Owner: SPXS Country: US Constellation: starlink
LEOCIRCULAR

关于 Starlink 3071

正在加载描述...

实时位置

正在加载3D地球...

即将过境

高度历史

Altitude vs Time

uPlot chart will show altitude changes over time

两行轨道根数

1 49147U 21082T 25305.48428820 -.00000117 00000-0 -20330-5 0 9993
2 49147 70.0000 217.7082 0002371 267.5317 92.5570 14.98327103227765
Epoch: Nov 1, 2025 • Age: 23 hours

当前状态

高度 582.7 km
速度 7.57 km/s
星下点 58.31°N, 158.95°E
发射日期 Sep 14, 2021
运行时间 4.1 years
类型 internet

技术详情

分类 Payload
质量 297.00 kg
干质量 275.00 kg
总质量 297.00 kg
长度 0.20 m
直径 2.80 m
跨度 9.00 m
形状 Box + pan
制造商 SPXS
平台类型 Starlink
阶段状态 In Orbit
所有者/国家 SPXS/US

大型星座

Loading constellations...